Weather in Bol'shaya Vereyka

Russia / Voronezh Oblast     52°01′02″N   38°55′34″E
temp.,
°C
wind,
m/s
gust,
m/s
humid.,
%
clouds,
%
prec.,
mm/h
press.,
hPa
HPBL,
m
3 march, wed
wed300:000nw61293100 0.2 1011538
03:00−2nnw6139381 0.2 1013498
06:00−1nnw7139090 0.1 1014826
09:00−3nnw8138894 0.1 1017833
12:00−2nnw7108093 0.0 1018838
15:00−1nw697752 0.0 1019831
18:00−2w511880 0.0 1019410
21:00−2w5129233 0.0 1019506
4 march, thu
thu400:00−1w51189100 0.0 1017770
03:00−1w61290100 0.1 1016565
06:00−2wsw6149061 0.0 1014375
09:00−1wsw8168340 0.0 1012469
12:00+2wsw915772 0.0 1009677
15:00+3wsw9167426 0.0 1007726
18:00+2wsw6168138 0.0 1005637
21:00+2wsw6149069 0.0 1003589
5 march, fri
fri500:00+2wsw61396100 0.1 1002537
03:00+1w61395100 0.2 1002726
06:000w7149085 0.1 1003592
09:00+1w7118877 0.1 1005810
12:00+1wnw578199 0.1 1007786
15:00−1n4578100 0.1 1009688
18:00−2nne4579100 0.0 1010661
21:00−2nne4579100 0.0 1012534
6 march, sat
sat600:00−3n4579100 0.0 1013421
03:00−4n367655 0.0 1014317
06:00−5nnw358588 0.0 1015297
09:00−5nnw357552 0.0 1016303
12:00−3nnw33570 0.0 1017590
15:00−2wnw23514 0.0 1017931
18:00−3nw226167 0.0 1016826
21:00−4nne227876 0.1 1018387
7 march, sun
sun700:00−5nw358493 0.1 1018516
03:00−6w477878 0.1 1018476
06:00−6wsw611700 0.0 1017682
09:00−4sw9145735 0.0 1014935
12:00−2sw111749100 0.0 10121131
15:000wsw111851100 0.0 10081348
18:000wsw101962100 0.0 10061387
21:00−1wsw9167599 0.0 10041081